Tracking 32932 objects as of 15-Jan-2026
HD Live streaming from Space Station
objects crossing your sky now

LEMUR 2 LIA-MARTIN

Track LEMUR 2 LIA-MARTIN now!
10-day predictions
LEMUR 2 LIA-MARTIN is classified as:


NORAD ID: 63248
Int'l Code: 2025-052AQ
Perigee: 583.8 km
Apogee: 589.1 km
Inclination: 97.7 °
Period: 96.3 minutes
Semi major axis: 6957 km
RCS: Unknown
Launch date: March 15, 2025
Source: United States (US)
Launch site: AIR FORCE WESTERN TEST RANGE (AFWTR)
Your satellite tracking list
Your tracking list is empty




NASA's NSSDC Master Catalog

Two Line Element Set (TLE):
1 63248U 25052AQ  26014.13933303  .00002751  00000-0  25046-3 0  9990
2 63248  97.7083 268.9404 0003782  13.5850 346.5472 14.95980145 45639
Source of the keplerian elements: AFSPC